Find DSP F12

NORAD ID: 15453 Int'l Des: 1984-129 Owner: AFSD Country: US operational
HEOCIRCULAR

当前视图

正在加载3D地球...

About DSP F12

DSP F12 (NORAD 15453) is a satellite launched Dec 22, 1984 by AFSD of US. It operates in HEO, CIRCULAR orbit with a mass of 1680.00 kg.

即将过境

Passes for default location (London). Set your location on the main map for personalized predictions.

高度历史

Loading altitude history...

两行轨道根数

1 15453U 84129A 26194.59228080 .00000028 00000-0 00000+0 0 9997
2 15453 11.4505 320.7476 0002539 281.2498 131.6424 0.98854870 26310
Epoch: Jul 13, 2026 • Age: 17 hours

当前状态

高度 36180.1 km
远地点 / 近地点 N/A
速度 3.06 km/s
星下点 -8.79°S, 134.16°W
发射日期 Dec 22, 1984
运行时间 41.5 years
类型 military

技术详情

分类 Payload
质量 1680.00 kg
干质量 1600.00 kg
总质量 1680.00 kg
长度 7.10 m
直径 3.10 m
跨度 8.60 m
形状 Cyl + 4 Pan
制造商 TRW
平台类型 DSP P2U
阶段状态 Unknown Transfer Status
所有者/国家 AFSD/US

Most Searched